• In Russia
  • List of Countries
  • For 7 days
  • Water Temperature
  • Satellite Maps
  • Weather Map
  • Weather Widgets
  • user-avatar
    Login

    Hourly Weather Tugnuy

    Today, 25 September, Tuesday

    Time Temperature Precipitation Wind Pressure Humidity
    00:00 +7°C° 0 mm 0 mps 708 mmHg 69%
    01:00 +7°C° 0 mm 1 mps 708 mmHg 69%
    02:00 +7°C° 0 mm 1 mps 708 mmHg 70%
    03:00 +7°C° 0 mm 1 mps 708 mmHg 71%
    04:00 +6°C° 0 mm 1 mps 708 mmHg 72%
    05:00 +7°C° 0 mm 1 mps 709 mmHg 69%
    06:00 +8°C° 0 mm 1 mps 709 mmHg 67%
    07:00 +8°C° 0 mm 1 mps 709 mmHg 62%
    08:00 +11°C° 0 mm 1 mps 709 mmHg 56%
    09:00 +13°C° 0 mm 1 mps 709 mmHg 50%
    10:00 +15°C° 0 mm 2 mps 708 mmHg 44%
    11:00 +16°C° 0 mm 2 mps 708 mmHg 42%
    12:00 +18°C° 0 mm 2 mps 708 mmHg 40%
    13:00 +19°C° 0 mm 2 mps 708 mmHg 39%
    14:00 +19°C° 0 mm 2 mps 708 mmHg 40%
    15:00 +19°C° 0 mm 2 mps 708 mmHg 41%
    16:00 +19°C° 0 mm 2 mps 707 mmHg 42%
    17:00 +16°C° 0 mm 1 mps 707 mmHg 49%
    18:00 +14°C° 0 mm 1 mps 707 mmHg 55%
    19:00 +12°C° 0 mm 1 mps 707 mmHg 62%
    20:00 +11°C° 0 mm 1 mps 707 mmHg 63%
    21:00 +11°C° 0 mm 1 mps 707 mmHg 65%
    22:00 +10°C° 0 mm 1 mps 707 mmHg 66%
    23:00 +10°C° 0 mm 1 mps 707 mmHg 67%

    Tomorrow, 26 September, Wednesday

    Time Temperature Precipitation Wind Pressure Humidity
    00:00 +9°C° 0 mm 1 mps 707 mmHg 68%
    01:00 +9°C° 0 mm 1 mps 706 mmHg 69%
    02:00 +9°C° 0 mm 1 mps 706 mmHg 69%
    03:00 +9°C° 0 mm 1 mps 706 mmHg 70%
    04:00 +8°C° 0 mm 1 mps 706 mmHg 71%
    05:00 +9°C° 0 mm 1 mps 706 mmHg 70%
    06:00 +9°C° 0 mm 1 mps 706 mmHg 69%
    07:00 +10°C° 0 mm 1 mps 706 mmHg 68%
    08:00 +12°C° 0 mm 1 mps 706 mmHg 61%
    09:00 +14°C° 0 mm 1 mps 706 mmHg 55%
    10:00 +16°C° 0 mm 1 mps 706 mmHg 49%
    11:00 +16°C° 0.3 mm 1 mps 705 mmHg 53%
    12:00 +16°C° 0.3 mm 2 mps 705 mmHg 57%
    13:00 +16°C° 0.3 mm 2 mps 705 mmHg 61%
    14:00 +13°C° 0.5 mm 3 mps 705 mmHg 68%
    15:00 +12°C° 0.5 mm 3 mps 705 mmHg 75%
    16:00 +10°C° 0.5 mm 4 mps 705 mmHg 82%
    17:00 +10°C° 0.5 mm 4 mps 705 mmHg 84%
    18:00 +8°C° 0.5 mm 4 mps 705 mmHg 86%
    19:00 +7°C° 0.5 mm 4 mps 706 mmHg 87%
    20:00 +8°C° 0.2 mm 3 mps 706 mmHg 87%
    21:00 +7°C° 0.2 mm 3 mps 706 mmHg 87%
    22:00 +7°C° 0.2 mm 3 mps 706 mmHg 87%
    23:00 +7°C° 0.2 mm 3 mps 706 mmHg 87%

    Day after tomorrow, 27 September, Thursday

    Time Temperature Precipitation Wind Pressure Humidity
    00:00 +7°C° 0.2 mm 3 mps 706 mmHg 88%
    01:00 +6°C° 0.2 mm 4 mps 706 mmHg 89%
    02:00 +6°C° 0.2 mm 4 mps 706 mmHg 88%
    03:00 +5°C° 0.2 mm 4 mps 706 mmHg 86%
    04:00 +5°C° 0.2 mm 5 mps 706 mmHg 85%
    05:00 +3°C° 0.1 mm 5 mps 706 mmHg 84%
    06:00 +3°C° 0.1 mm 5 mps 707 mmHg 83%
    07:00 +2°C° 0.1 mm 6 mps 707 mmHg 82%
    08:00 +3°C° 0 mm 6 mps 707 mmHg 78%
    09:00 +3°C° 0 mm 6 mps 707 mmHg 75%
    10:00 +3°C° 0 mm 6 mps 707 mmHg 71%
    11:00 +4°C° 0.1 mm 6 mps 707 mmHg 69%
    12:00 +4°C° 0.1 mm 6 mps 707 mmHg 66%
    13:00 +4°C° 0.1 mm 6 mps 706 mmHg 64%
    14:00 +4°C° 0 mm 6 mps 706 mmHg 64%
    15:00 +4°C° 0 mm 6 mps 706 mmHg 65%
    16:00 +4°C° 0 mm 6 mps 706 mmHg 65%
    17:00 +5°C° 0 mm 5 mps 706 mmHg 69%
    18:00 +3°C° 0 mm 5 mps 706 mmHg 73%
    19:00 +4°C° 0 mm 4 mps 706 mmHg 77%
    20:00 +3°C° 0.1 mm 5 mps 706 mmHg 78%
    21:00 +3°C° 0.1 mm 5 mps 706 mmHg 80%
    22:00 +3°C° 0.1 mm 5 mps 705 mmHg 81%
    23:00 +3°C° 0.4 mm 5 mps 705 mmHg 82%

    28 September, Friday

    Time Temperature Precipitation Wind Pressure Humidity
    00:00 +3°C° 0.4 mm 5 mps 705 mmHg 83%
    01:00 +3°C° 0.4 mm 6 mps 704 mmHg 84%
    02:00 +3°C° 0.5 mm 6 mps 704 mmHg 84%
    03:00 +3°C° 0.5 mm 6 mps 704 mmHg 85%
    04:00 +2°C° 0.5 mm 6 mps 704 mmHg 85%
    05:00 +3°C° 0.3 mm 6 mps 705 mmHg 84%
    06:00 +3°C° 0.3 mm 7 mps 705 mmHg 84%
    07:00 +3°C° 0.3 mm 7 mps 705 mmHg 83%
    08:00 +3°C° 0.3 mm 7 mps 705 mmHg 82%
    09:00 +3°C° 0.3 mm 7 mps 706 mmHg 81%
    10:00 +4°C° 0.3 mm 7 mps 706 mmHg 80%
    11:00 +4°C° 0.3 mm 7 mps 706 mmHg 80%
    12:00 +4°C° 0.3 mm 6 mps 707 mmHg 80%
    13:00 +4°C° 0.3 mm 6 mps 707 mmHg 80%
    14:00 +4°C° 0.1 mm 6 mps 708 mmHg 81%
    15:00 +5°C° 0.1 mm 5 mps 709 mmHg 82%
    16:00 +5°C° 0.1 mm 5 mps 709 mmHg 83%
    17:00 +4°C° 0.2 mm 4 mps 710 mmHg 85%
    18:00 +4°C° 0.2 mm 3 mps 711 mmHg 87%
    19:00 +4°C° 0.2 mm 3 mps 711 mmHg 90%
    20:00 +3°C° 0.1 mm 3 mps 712 mmHg 91%
    21:00 +4°C° 0.1 mm 2 mps 712 mmHg 92%
    22:00 +4°C° 0.1 mm 2 mps 712 mmHg 93%
    23:00 +4°C° 0.2 mm 2 mps 712 mmHg 93%

    29 September, Saturday

    Time Temperature Precipitation Wind Pressure Humidity
    00:00 +4°C° 0.2 mm 2 mps 713 mmHg 93%
    01:00 +4°C° 0.2 mm 2 mps 713 mmHg 92%
    02:00 +4°C° 0.2 mm 2 mps 713 mmHg 93%
    03:00 +5°C° 0.2 mm 2 mps 713 mmHg 93%
    04:00 +5°C° 0.2 mm 2 mps 714 mmHg 93%
    05:00 +5°C° 0 mm 2 mps 714 mmHg 93%
    06:00 +5°C° 0 mm 2 mps 715 mmHg 93%
    07:00 +5°C° 0 mm 2 mps 715 mmHg 92%
    08:00 +7°C° 0 mm 2 mps 715 mmHg 87%
    09:00 +8°C° 0 mm 2 mps 715 mmHg 82%
    10:00 +10°C° 0 mm 2 mps 716 mmHg 77%
    11:00 +12°C° 0 mm 2 mps 716 mmHg 73%
    12:00 +13°C° 0 mm 2 mps 715 mmHg 69%
    13:00 +14°C° 0 mm 2 mps 715 mmHg 65%
    14:00 +14°C° 0 mm 2 mps 715 mmHg 65%
    15:00 +14°C° 0 mm 1 mps 715 mmHg 66%
    16:00 +14°C° 0 mm 1 mps 715 mmHg 67%
    17:00 +12°C° 0 mm 1 mps 715 mmHg 75%
    18:00 +10°C° 0 mm 1 mps 715 mmHg 82%
    19:00 +9°C° 0 mm 1 mps 716 mmHg 89%
    20:00 +8°C° 0 mm 1 mps 716 mmHg 90%
    21:00 +8°C° 0 mm 1 mps 716 mmHg 91%
    22:00 +7°C° 0 mm 1 mps 716 mmHg 92%
    23:00 +7°C° 0 mm 1 mps 715 mmHg 92%

    30 September, Sunday

    Time Temperature Precipitation Wind Pressure Humidity
    00:00 +6°C° 0 mm 1 mps 715 mmHg 93%
    01:00 +6°C° 0 mm 1 mps 715 mmHg 94%
    02:00 +5°C° 0 mm 1 mps 715 mmHg 94%
    03:00 +5°C° 0 mm 1 mps 715 mmHg 94%
    04:00 +5°C° 0 mm 1 mps 715 mmHg 94%
    05:00 +5°C° 0 mm 1 mps 715 mmHg 93%
    06:00 +5°C° 0 mm 1 mps 715 mmHg 92%
    07:00 +6°C° 0 mm 1 mps 715 mmHg 90%
    08:00 +7°C° 0 mm 2 mps 714 mmHg 84%
    09:00 +9°C° 0 mm 2 mps 714 mmHg 77%
    10:00 +12°C° 0 mm 2 mps 714 mmHg 70%
    11:00 +13°C° 0 mm 2 mps 714 mmHg 65%
    12:00 +14°C° 0 mm 2 mps 714 mmHg 61%
    13:00 +15°C° 0 mm 2 mps 713 mmHg 57%
    14:00 +15°C° 0 mm 2 mps 713 mmHg 57%
    15:00 +15°C° 0 mm 2 mps 713 mmHg 58%
    16:00 +15°C° 0 mm 2 mps 713 mmHg 59%
    17:00 +12°C° 0 mm 1 mps 713 mmHg 67%
    18:00 +10°C° 0 mm 1 mps 713 mmHg 75%
    19:00 +8°C° 0 mm 1 mps 713 mmHg 83%
    20:00 +8°C° 0 mm 1 mps 713 mmHg 84%
    21:00 +7°C° 0 mm 1 mps 713 mmHg 84%
    22:00 +7°C° 0 mm 1 mps 713 mmHg 84%
    23:00 +6°C° 0 mm 1 mps 712 mmHg 85%
    Show more